www.pogodaiklimat.ru

Погода и климат >> Архив погоды >> Канада >> Нунавут >> Аэропорт Арвиат


ПОГОДА в Аэропорту Арвиат

  • Прогноз погоды в Аэропорту Арвиат
  • Монитор погоды в Аэропорту Арвиат

АРХИВ ПОГОДЫ в Аэропорту Арвиат

Время (UTC), дата Ветер
(напр.,м/с)
 
Видим.   Явления Облачность Т
(С)
Тd
(С)
f
(%)
Тe
(С)
Тes
(С)
Комфортность P
(гПа)
Po
(гПа)
Тmin
(С)
Tmax
(С)
R
(мм)
R24
(мм)
S
(см)
21 11.02 ЮЗ 4 8000 м слаб. снег 10/10 1500 м
[]
-15.6 -17.7 84 -24 -24 1019.9 1018.5
00 12.02 СЗ 6 16 км слаб. снег 9/9 600 м
[]
-18.6 -20.7 83 -29 -29 1021.3 1019.9 -18.6 -15.3
03 12.02 СЗ 7 16 км ясно -25.3 -28.4 75 -38 -38 опасность
обморожения
1023.1 1021.7
06 12.02 СЗ 7 16 км ясно -26.4 -29.6 74 -40 -40 опасность
обморожения
1024.1 1022.7 -26.6 -15.3 21
09 12.02 СЗ 7 14 км ясно -27.2 -30.7 72 -41 -41 опасность
обморожения
1024.6 1023.2
12 12.02 СЗ 7 16 км ясно -28.2 -31.6 73 -42 -42 опасность
обморожения
1025.1 1023.7 -28.9 -15.3
15 12.02 СЗ 5 16 км 5/5 100 м
[]
-28.3 -31.9 71 -41 -40 опасность
обморожения
1025.5 1024.0
18 12.02 З 4 16 км 10/10 1000 м
[]
-25.0 -28.4 73 -35 -35 опасность
обморожения
1024.9 1023.4 -29.6 -25.0
21 12.02 З 4 16 км 9/9 600 м
[]
-24.1 -27.2 75 -34 -34 опасность
обморожения
1024.0 1022.5
00 13.02 З 4 16 км ясно -27.4 -30.6 74 -37 -37 опасность
обморожения
1023.6 1022.1 -29.6 -22.9
03 13.02 ЮЗ 4 16 км ясно -30.8 -33.7 76 -42 -42 опасность
обморожения
1022.2 1020.7
06 13.02 СЗ 4 16 км ясно -29.7 -32.8 74 -41 -41 опасность
обморожения
1020.8 1019.3 -31.3 -22.9 71
09 13.02 СЗ 5 16 км ясно -30.4 -33.6 73 -43 -43 опасность
обморожения
1019.7 1018.2
12 13.02 СЗ 4 16 км 5/0 2000 м
[]
-31.7 -35.1 72 -43 -43 опасность
обморожения
1018.6 1017.1 -33.1 -22.9
15 13.02 СЗ 4 16 км ясно -32.7 -36.2 71 -45 -45 опасность
обморожения
1017.4 1015.9
18 13.02 СЗ 4 16 км 3/3 200 м
[]
-29.0 -32.3 73 -40 -39 опасность
обморожения
1016.3 1014.8 -33.1 -29.0
21 13.02 СЗ 3 300 м сильн. снег н/о -26.9 -29.8 76 -35 -35 опасность
обморожения
1015.4 1013.9
00 14.02 З 2 1200 м дымка н/о -29.6 -32.6 75 -37 -37 опасность
обморожения
1015.6 1014.1 -33.1 -26.6
03 14.02 З 3 2400 м дым 3/3 <50 м
[]
-29.5 -32.9 72 -39 -39 опасность
обморожения
1015.3 1013.8
06 14.02 З 3 16 км 9/0 2000 м
[]
-30.1 -33.2 74 -40 -40 опасность
обморожения
1014.8 1013.3 -33.1 -26.6
09 14.02 З 3 16 км 10/0 2000 м
[]
-30.8 -34.3 71 -41 -41 опасность
обморожения
1015.3 1013.8
12 14.02 З 3 16 км ясно -32.8 -36.4 70 -43 -43 опасность
обморожения
1015.4 1013.9 -32.8 -26.6
15 14.02 ЮЗ 3 16 км ясно -32.1 -35.6 71 -42 -42 опасность
обморожения
1015.2 1013.7
18 14.02 ЮЗ 4 6000 м слаб. снег 10/10 600 м
[]
-26.1 -29.0 76 -37 -37 опасность
обморожения
1015.0 1013.6 -32.9 -25.4
21 14.02 ЮЗ 4 11 км слаб. снег 9/9 1000 м
[]
-24.4 -27.1 78 -34 -34 опасность
обморожения
1014.8 1013.4
00 15.02 Ю 2 11 км слаб. снег 10/10 1000 м
[]
-25.2 -27.9 78 -32 -32 опасность
обморожения
1015.2 1013.7 -32.9 -24.2 0.0
03 15.02 З 2 4000 м слаб. снег 10/10 600 м
[]
-25.0 -27.7 78 -32 -32 опасность
обморожения
1014.9 1013.5
06 15.02 С 3 16 км слаб. снег ясно -26.8 -29.7 76 -36 -36 опасность
обморожения
1015.1 1013.7 -32.9 -24.2 0.0
09 15.02 С 5 16 км слаб. снег ясно -30.7 -33.9 73 -44 -44 опасность
обморожения
1015.4 1014.0
12 15.02 С 6 4800 м слаб. снег 10/10 300 м
[]
-29.2 -32.2 75 -43 -43 опасность
обморожения
1016.9 1015.5 -31.3 -24.2
15 15.02 С 7 4800 м дым 3/3 300 м
[]
-28.3 -31.3 75 -42 -42 опасность
обморожения
1018.0 1016.6
18 15.02 С 6 16 км 10/10 300 м
[]
-22.0 -24.3 82 -34 -34 опасность
обморожения
1019.6 1018.2 -31.3 -22.0
21 15.02 СЗ 7 16 км 10/10 300 м
[]
-22.1 -24.4 82 -35 -35 опасность
обморожения
1021.2 1019.7
00 16.02 СЗ 5 16 км слаб. снег 10/10 1000 м
[]
-21.7 -24.0 82 -32 -32 опасность
обморожения
1022.6 1021.2 -31.3 -21.1
03 16.02 С 7 12 км слаб. снег 10/10 1000 м
[]
-21.6 -23.9 82 -34 -34 опасность
обморожения
1023.3 1021.9
06 16.02 С 6 16 км 10/10 1000 м
[]
-22.7 -25.1 81 -34 -34 опасность
обморожения
1023.9 1022.5 -31.3 -20.6 21
09 16.02 С 7 16 км 10/10 1000 м
[]
-22.5 -24.9 81 -35 -35 опасность
обморожения
1024.5 1023.1
12 16.02 С 8 16 км 10/10 600 м
[]
-25.6 -28.4 77 -39 -39 опасность
обморожения
1026.1 1024.7 -26.2 -20.6
15 16.02 С 8 9000 м дым 5/5 1000 м
[]
-26.1 -28.9 77 -41 -41 опасность
обморожения
1026.8 1025.4
18 16.02 С 10 2400 м дым 10/10 600 м
[]
-23.5 -26.1 79 -38 -38 опасность
обморожения
1027.9 1026.5 -27.7 -22.3
21 16.02 СЗ 11 1200 м в посл. час метель 9/9 100 м
[]
-27.9 -31.0 75 -45 -45 опасность
обморожения
1028.7 1027.2
00 17.02 С 10 1200 м слаб. снег 9/9 100 м
[]
-31.0 -34.4 72 -48 -48 опасность
обморожения
1029.7 1028.2 -31.6 -23.2
03 17.02 С 12 1000 м слаб. снег н/о -30.8 -34.2 72 -49 -49 опасность
обморожения
1029.9 1028.4
06 17.02 СЗ 11 1200 м слаб. снег 10/10 50 м
[]
-31.8 -35.4 70 -50 -50 опасность
обморожения
1030.5 1029.0 -32.8 -22.3 41
09 17.02 СЗ 10 1200 м слаб. снег 9/9 50 м
[]
-33.3 -36.9 70 -51 -51 опасность
обморожения
1031.1 1029.6
12 17.02 СЗ 11 1600 м в посл. час метель ясно -33.3 -36.9 70 -52 -52 опасность
обморожения
1031.7 1030.2 -33.5 -22.3
15 17.02 С 10 2000 м дым ясно -32.6 -36.2 70 -50 -50 опасность
обморожения
1031.8 1030.3
18 17.02 СЗ 12 500 м в посл. час сильная метель н/о -31.0 -34.4 72 -49 -49 опасность
обморожения
1032.2 1030.7 -33.5 -30.6
21 17.02 СЗ 11 500 м в посл. час сильная метель н/о -29.9 -33.2 73 -48 -48 опасность
обморожения
1031.6 1030.1
00 18.02 СЗ 11 1200 м слаб. снег 9/9 100 м
[]
-29.7 -33.1 72 -47 -47 опасность
обморожения
1031.6 1030.1 -33.5 -29.0
03 18.02 СЗ 9 2000 м дым 3/3 100 м
[]
-30.4 -33.8 72 -46 -46 опасность
обморожения
1030.5 1029.0
06 18.02 СЗ 9 1600 м дым 5/5 100 м
[]
-31.1 -34.6 71 -48 -48 опасность
обморожения
1029.2 1027.7 -33.5 -29.0 212
09 18.02 СЗ 10 1600 м слаб. снег 3/3 50 м
[]
-31.0 -34.5 71 -48 -48 опасность
обморожения
1027.9 1026.4
12 18.02 СЗ 9 2000 м дым ясно -31.1 -34.6 71 -47 -47 опасность
обморожения
1027.2 1025.7 -32.1 -29.0
15 18.02 СЗ 9 4800 м дым ясно -30.7 -34.1 72 -47 -47 опасность
обморожения
1025.9 1024.4
18 18.02 СЗ 10 14 км ясно -28.1 -31.3 74 -44 -44 опасность
обморожения
1024.7 1023.2 -32.2 -28.0

 

Местоположение метеостанции Аэропорт Арвиат (Нунавут, Канада): широта 61.09 долгота -94.07 высота над уровнем моря 10 м.

В архиве по умолчанию представлена погода в Аэропорту Арвиат за последнюю неделю. Архивные данные за месяц целиком и за предыдущие месяцы, начиная с января 2011 года, Вы можете получить, выбрав интересующий диапазон дат из раскрывающегося списка и нажав кнопку "Ввод!".


*Определитесь, кто Вы:
робот инопланетянин человек

Внимание! Время в таблицах - всемирное. Для получения местного времени необходимо прибавить поправку, которая равна -5 ч.

Смотрите также архив погоды в соседних городах и на ближайших метеорологических станциях:

Погода в Арвиате (Нунавут, Канада) (1 км)
Погода в Арвиате (Нунавут, Канада) (1 км)
Погода в Ранкин-Инлете (Нунавут, Канада) (218 км)
Погода в Черчилле (Манитоба, Канада) (264 км)
Погода в Тадоул Лейк (Манитоба, Канада) (361 км)
Погода в Бейкер-Лейке (Нунавут, Канада) (371 км)
Погода в Бейкер Лейк (Нунавут, Канада) (372 км)
Погода в Ки Лейк 2 (Саскачеван, Канада) (462 км)
Погода в Гилламе (Манитоба, Канада) (528 км)
Погода в Глеичене (Альберта, Канада) (568 км)

Пояснения к столбцам:

Ветер - указаны скорость ветра в м/с - средняя за 10 мин, порывы в срок и между сроками (в фигурных скобках) и направление, откуда дует ветер: С - северный, СВ - северо-восточный, В - восточный, ЮВ - юго-восточный, Ю - южный, ЮЗ - юго-западный, З - западный, СЗ - северо-западный.
Видимость - горизонтальная дальность видимости в метрах или километрах. При видимости от 1 до 10 км при отсутствии осадков обычно наблюдается дымка, при ухудшении видимости до 1 км и менее - туман. В сухую погоду видимость может ухудшаться дымом, пылью или мглою.
Явления - указаны атмосферные явления, наблюдавшиеся в срок или в последний час перед сроком; фигурными скобками обозначены явления, наблюдавшиеся между сроками (за 1-3 часа до срока); квадратными скобками обозначены град или гололедные отложения с указанием их диаметра в мм.
Облачность - указаны через наклонную черту общая и нижняя облачность в баллах и высота нижней границы облаков в метрах; квадратными скобками обозначены формы облаков: Ci - перистые, Cs - перисто-слоистые, Cc - перисто-кучевые, Ac - высококучевые, As - высокослоистые, Sc - слоисто-кучевые, Ns - слоисто-дождевые, Cu - кучевые, Cb - кучево-дождевые. Подробнее классификацию облаков см. в Атласе облаков (PDF).
T - Температура воздуха - температура, измеренная на высоте 2 м над землей.
Td - Температура точки росы - температура, при понижении до которой содержащийся в воздухе водяной пар достигнет насыщения.
f - Относительная влажность воздуха - влажноcть воздуха, измеренная на высоте 2 м над землей.
Te - Эффективная температура - температура, которую ощущает одетый по сезону человек в тени. Характеристика душности погоды. При расчете учитывается влияние влажности воздуха и скорости ветра на теплоощущения человека.
Tes - Эффективная температура на солнце - температура, которую ощущает человек, с поправкой на солнечный нагрев. Характеристика знойности погоды. Зависит от высоты солнца над горизонтом, облачности и скорости ветра. Ночью, в пасмурную погоду, а также при ветре 12 м/с и более поправка равна нулю.
P - Атмосферное давление - приведенное к уровню моря атмосферное давление.
Po - Атмосферное давление - измеренное на уровне метеостанции атмосферное давление.
Tmin - Минимальная температура - минимум температуры воздуха на высоте 2 м над землей.
Tmax - Максимальная температура - максимум температуры воздуха на высоте 2 м над землей.
R - Количество осадков - Количество выпавших осадков за период времени, мм. При наведении курсора мыши на число - период времени, за который выпало указанное количество осадков.
R24 - Количество осадков - Количество выпавших осадков за 24 часа, мм.
S - Снежный покров - Высота снежного покрова, см. При наведении курсора мыши на число - состояние снежного покрова и степень покрытия местности в баллах.